Location: Unspecified
(50.0830°N, 0.0000°E)
Time: 05:57:36
(UTC+00:00)

Envisat - Pass Details

Date: 24 November 2019
Orbit: 764 x 766 km, 98.1° (Epoch: 14 December)

Event Time Altitude Azimuth Distance (km) Brightness Sun altitude
Rises 06:12:01 0° 21° (NNE) 3,244 6.3 -11.6°
Reaches altitude 10° 06:14:33 10° 30° (NNE) 2,313 5.6 -11.3°
Maximum altitude 06:19:09 34° 95° (E) 1,255 4.9 -10.6°
Drops below altitude 10° 06:23:43 10° 160° (SSE) 2,296 6.1 -9.9°
Sets 06:26:13 0° 169° (S) 3,218 6.7 -9.5°
